Terug naar catalogus

SL-3 R/B

ActiefPO
NORAD 13121·ROCKET BODY·🇷🇺 Russia

Gelanceerd Mar 31, 1982 vanaf Plesetsk Cosmodrome

Loading…

Volgende Passages (komende 24 uur)

TLE

VersSource: Space-Track

Epoch: Sep 14, 2026, 21:29 UTC

1 13121U 82027B   26257.89571002  .00005592  00000-0  18977-3 0  9997
2 13121  81.1891 173.7651 0008107   1.5902 358.5359 15.30304657427477

Volg SL-3 R/B in realtime met AllMySat

Download on the App Store